Location: Alpha Ridge Park
(39.3209°N, 76.9128°W)
Time: 02:42:26
(UTC-04:00)

Envisat - Visible Passes

Search period start: 28 May 2023 00:00
Search period end: 07 June 2023 00:00
Orbit: 763 x 765 km, 98.2° (Epoch: 27 May)

Date Brightness Start Highest point End Pass type
(mag) Time Alt. Az. Time Alt. Az. Time Alt. Az.
28 May 5.3 03:58:12 10° NE 04:01:55 20° E 04:05:36 10° SE visible
29 May 3.1 04:58:56 10° NNE 05:04:03 82° ESE 05:09:06 10° S visible
30 May 4.4 04:22:10 10° NNE 04:26:48 35° E 04:31:25 10° SSE visible
31 May 5.5 03:46:26 10° NE 03:49:22 15° E 03:52:18 10° SE visible
01 Jun 3.5 04:46:34 10° NNE 04:51:37 62° E 04:56:37 10° S visible
02 Jun 4.9 04:10:02 10° NE 04:14:19 27° E 04:18:33 10° SSE visible
03 Jun 5.7 03:35:14 10° ENE 03:36:48 11° E 03:38:23 10° ESE visible
03 Jun 3.0 05:11:15 10° N 05:16:19 76° WNW 05:21:22 10° SSW visible
04 Jun 3.9 04:34:16 10° NNE 04:39:10 47° E 04:44:01 10° S visible
05 Jun 5.2 03:58:02 10° NE 04:01:48 21° E 04:05:32 10° SE visible
06 Jun 3.1 04:58:48 10° NNE 05:03:54 83° ESE 05:08:59 10° SSW visible
